sat.trackr.live / text

‹ back to catalog

STARLINK-11604 [DTC]

NORAD 63133 · 2025-043B

PAYLOAD ACTIVE UNKNOWN

§ Identity

Operator
Country
US
Launch date
2025-03-03
Launch site
AFETR
Launch vehicle
Mass (kg)
RCS (m²)

Purposes: comms

External: N2YO · Heavens-Above · Gunter

§ Orbital elements

Epoch: 2026-05-25T05:15:08.788608Z

Period
91.67 min
Inclination
42.9994°
Eccentricity
0.0002060
Mean motion
15.70839254 rev/d
Perigee alt
355.1 km
Apogee alt
357.9 km
Semi-major
6,734.6 km
B*
1.2553e-3
RAAN
149.8294°
Arg perigee
289.8780°
Mean anomaly
70.1866°
Rev number
7,138

§ Raw data

STARLINK-11604 [DTC]1 63133U 25043B   26145.21885172  .00163833  00000+0  12553-2 0  99932 63133  42.9994 149.8294 0002060 289.8780  70.1866 15.70839254 71383

JSON: /api/v1/satellites/63133 · /tle

For live sub-satellite position, see the globe view (requires WebGL).

§ Visibility from observer

Set your observer location to see the next 7 days of passes ≥ 10°. The values pass through the URL so the page stays shareable.

No JS? Fill the form by hand. The geolocation button needs JavaScript.